Other Surface Observations
Issued by NWS

Home | Current Version | Previous Version | Text Only | Print | Product List | Glossary On
Versions: 1 2 3 4 5 6 7 8 9 10 11 12 13 14 15 16 17 18 19 20 21 22 23 24 25 26 27 28 29 30 31 32 33 34 35 36 37 38 39 40 41 42 43 44 45 46 47 48 49 50
952
SXUS52 KTAE 281418
OSOTAE
OSOTAE
North Florida/South Alabama/Southwest Georgia Weather Roundup
National Weather Service Tallahassee Florida
1000 AM EDT FRI JUL 28 2017

Note: "fair" indicates few or no clouds below 12,000 feet with no
significant weather and/or obstructions to visibility.

!FLZ017-115-028-034-025-281500
...North Florida...

CITY           SKY/WX    TMP DP  RH WIND       PRES   REMARKS
TALLAHASSEE    PTSUNNY   83  77  82 SW6       29.96R HX  92
APALACHICOLA   MOSUNNY   87  82  85 SW7       29.96S HX 106
PERRY          SUNNY     85  79  81 W3        29.97S HX  98
CROSS CITY     MOSUNNY   85  77  76 S3        30.01S HX  95
JACKSONVILLE   PTSUNNY   85  77  77 W9        29.94S HX  95
$$

!FLZ112-006-005-002-011-281500
...Florida Panhandle...

CITY           SKY/WX    TMP DP  RH WIND       PRES   REMARKS
MARIANNA       SUNNY     85  75  72 SW6       29.95S HX  93
BONIFAY        NOT AVBL
PANAMA CITY NW FAIR      85  74  69 W5        29.95S HX  92
TYNDALL AFB    MOSUNNY   86  76  72 W6        29.96R HX  97
TYND DRONE APT FAIR      85  77  75 SW5       29.96R HX  96
DE FUNIAK SPR  FAIR      83  73  73 CALM      29.97S
EGLIN AFB      MOSUNNY   85  75  70 W5        29.96R HX  93
DESTIN         MOSUNNY   89  75  63 CALM      29.96R HX  99
HURLBURT       SUNNY     86  76  72 W8        29.95R HX  96
CRESTVIEW      MOSUNNY   84  74  71 NW8       29.98S HX  91
PENSACOLA      MOSUNNY   87  75  67 NW6       29.96S HX  96
$$

!ALZ063-066-281500
...South Alabama...

CITY           SKY/WX    TMP DP  RH WIND       PRES   REMARKS
DOTHAN         MOSUNNY   84  77  79 W7        30.00R HX  94
OZARK CAIRNS   SUNNY     84  75  74 W6        29.96R HX  92
FT RUCKER HELI SUNNY     83  76  79 W3        29.96R HX  92
RUCKER HELI 3  FAIR      83  75  77 NW5       29.96S HX  90
RUCKER HELI 2  FAIR      83  75  78 CALM      29.96R HX  90
FLORALA APT    MOSUNNY   85  73  67 VRB5      29.98S HX  91
ANDALUSIA      MOSUNNY   87  73  62 W8        29.97R HX  94
TROY           PTSUNNY   82  76  81 VRB3      29.97R
EUFALA         FAIR      86  75  69 VRB6      29.94R HX  95
MOBILE         PTSUNNY   84  74  71 NW6       29.99R HX  91
$$

!GAZ120>161-281500
...Southwest and South Central Georgia...

CITY           SKY/WX    TMP DP  RH WIND       PRES   REMARKS
THOMASVILLE    FAIR      88  73  62 W7        29.96S HX  96
BAINBRIDGE     SUNNY     86  79  79 W3        29.96R HX  99
MOODY AFB      SUNNY     86  74  68 SW8       29.94S HX  94
VALDOSTA       SUNNY     86  75  69 VRB6      29.95S HX  95
MOULTRIE       SUNNY     84  75  74 CALM      29.97R HX  92
BLAKELY        SUNNY     86  73  66 W5        29.96R HX  93
ALBANY         SUNNY     85  75  72 W8        29.97R HX  93
TIFTON         FAIR      83  77  80 SW7       29.95S HX  92
FITZGERALD     FAIR      88  77  70 W7        29.97S HX  99
CORDELE        FAIR      88  75  65 W6        29.96S HX  97
AMERICUS       FAIR      82  72  69 W6        29.97S
HOMERVILLE     FAIR      86  77  74 W8        29.95F HX  97
$$

!GMZ750-755-770-775-281500
...Coastal and Buoy Obs...

STATION/POSITION TIME  TEMP    WIND        PRES    VSBY  WAVE
                       AIR SEA DIR/SP/G                  HT/PER
                 (UTC) (F)     (DEG/KT/KT) (MB)    (MI)  (FT/S)
KEATON BEACH     1400   84     290/  3/  4 1014.2F
CEDAR KEY        1400   86     250/  5/  6 1015.0F
C TOWER          1400   84                 1015.1S
APALACHICOLA BUO 1350   82 86  290/  4/  4 1014.9R         1
PANAMA CITY BUOY 1350   85 85  270/  8/ 10 1014.7R         1/ 8
MOBILE BUOY      1400   83 87  310/  8/ 10 1015.5
ORANGE BCH AL BU 1350   85 86  300/ 10/ 12 1014.7R
$$




USA.gov is the U.S. government's official web portal to all federal, state and local government web resources and services.